Weather History for Plant City, FL

Change the Weather History Date:

Thursday, January 17, 2013

  Actual Average Record
Temperature  
Mean Temperature 67 °F -  
Max Temperature 77 °F 72 °F 88 °F (1943)
Min Temperature 57 °F 46 °F 28 °F (1968)
Cooling Degree Days 2    
Growing Degree Days 17 (Base 50)    
Moisture  
Dew Point 56 °F    
Average Humidity 77    
Maximum Humidity 100    
Minimum Humidity 63    
Precipitation  
Precipitation 0.00 in - - ()
Sea Level Pressure  
Sea Level Pressure 30.08 in    
Wind  
Wind Speed 5 mph (WSW)    
Max Wind Speed 18 mph    
Max Gust Speed 29 mph    
Visibility 6 miles    
Events Fog , Rain    
Averages and records for this station are not official NWS values.
T = Trace of Precipitation, MM = Missing Value Source: NWS Daily Summary

Daily Weather History Graph

Daily Weather History Graph

Search for Another Location

Airport:

Trip Planner

Search our weather history database for the weather conditions in past years. The results will help you decide how hot, cold, wet, or windy it might be!

Date:

Astronomy

Jan. 17, 2013 Rise Set
Actual Time 7:20 AM EST 5:57 PM EST
Civil Twilight 6:55 AM EST 6:22 PM EST
Nautical Twilight 6:27 AM EST 6:50 PM EST
Astronomical Twilight 5:58 AM EST 7:19 PM EST
Moon 11:04 AM EST (1/17) No Moon Set
Length of Visible Light 11h 26m
Length of Day
10h 36m
Waxing Crescent, 37% of the Moon is Illuminated
Jan 17
Waxing Crescent
Jan 18
First Quarter
Jan 26
Full
Feb 3
Last Quarter
Feb 10
New

Hourly Weather History & Observations

Time (EST) Temp. Dew Point Humidity Pressure Visibility Wind Dir Wind Speed Gust Speed Precip Events Conditions
12:15 AM 62.6 °F - N/A% 30.06 in 5.0 mi Calm Calm - N/A   Haze
12:35 AM 62.6 °F - N/A% 30.06 in 10.0 mi SW 3.5 mph - N/A   Clear
12:55 AM 62.6 °F - N/A% 30.06 in 10.0 mi Calm Calm - N/A   Clear
1:15 AM 62.6 °F - N/A% 30.07 in 10.0 mi South 3.5 mph - N/A   Clear
1:35 AM 62.6 °F - N/A% 30.07 in 10.0 mi SSE 3.5 mph - N/A   Clear
1:55 AM 62.6 °F - N/A% 30.07 in 7.0 mi Calm Calm - N/A   Scattered Clouds
2:15 AM 62.6 °F - N/A% 30.06 in 10.0 mi Calm Calm - N/A   Scattered Clouds
2:35 AM 60.8 °F - N/A% 30.06 in 1.8 mi Calm Calm - N/A   Mist
2:55 AM 62.6 °F - N/A% 30.05 in 5.0 mi Calm Calm - N/A   Haze
3:15 AM 60.8 °F - N/A% 30.05 in 5.0 mi Calm Calm - N/A   Haze
3:35 AM 62.6 °F - N/A% 30.05 in 10.0 mi South 3.5 mph - N/A   Scattered Clouds
4:35 AM 64.4 °F - N/A% 30.05 in 3.0 mi Calm Calm - N/A   Overcast
4:55 AM 64.4 °F - N/A% 30.04 in 0.5 mi South 3.5 mph - N/A Fog Fog
5:15 AM 64.4 °F - N/A% 30.04 in 0.8 mi South 3.5 mph - N/A   Overcast
5:35 AM 64.4 °F - N/A% 30.04 in 0.2 mi South 3.5 mph - N/A Fog Fog
5:55 AM 64.4 °F - N/A% 30.04 in 4.0 mi South 3.5 mph - N/A   Haze
6:15 AM 64.4 °F - N/A% 30.04 in 1.0 mi SSE 3.5 mph - N/A   Overcast
6:35 AM 64.4 °F - N/A% 30.04 in 0.8 mi SSE 4.6 mph - N/A   Overcast
6:55 AM 64.4 °F - N/A% 30.04 in 0.5 mi SSE 3.5 mph - N/A Fog Fog
7:15 AM 64.4 °F - N/A% 30.05 in 0.5 mi Calm Calm - N/A Fog Fog
7:35 AM 66.2 °F - N/A% 30.06 in 0.2 mi South 3.5 mph - N/A Fog Fog
7:55 AM 66.2 °F - N/A% 30.06 in 0.2 mi SSE 4.6 mph - N/A Fog Fog
8:15 AM 66.2 °F - N/A% 30.07 in 0.5 mi South 5.8 mph - N/A Fog Fog
8:35 AM 68.0 °F - N/A% 30.07 in 1.8 mi South 4.6 mph - N/A   Overcast
8:55 AM 68.0 °F - N/A% 30.07 in 0.8 mi South 8.1 mph - N/A   Overcast
9:15 AM 68.0 °F - N/A% 30.07 in 3.0 mi South 6.9 mph - N/A   Overcast
9:35 AM 69.8 °F - N/A% 30.07 in 7.0 mi South 9.2 mph - N/A   Overcast
9:55 AM 69.8 °F - N/A% 30.08 in 10.0 mi SSW 8.1 mph 18.4 mph N/A   Overcast
10:15 AM 71.6 °F - N/A% 30.09 in 10.0 mi SSW 6.9 mph - N/A   Overcast
10:35 AM 75.2 °F - N/A% 30.09 in 10.0 mi SW 12.7 mph 16.1 mph N/A   Overcast
10:55 AM 77.0 °F 71.6 °F 83% 30.08 in 10.0 mi SW 15.0 mph 19.6 mph N/A   Overcast
11:15 AM 71.6 °F 64.4 °F 78% 30.09 in 10.0 mi West 12.7 mph 24.2 mph N/A   Overcast
11:35 AM 69.8 °F 69.8 °F 100% 30.09 in 7.0 mi West 12.7 mph 18.4 mph N/A   Overcast
11:55 AM 68.0 °F - N/A% 30.08 in 7.0 mi WNW 12.7 mph - N/A   Overcast
12:15 PM 69.8 °F 66.2 °F 88% 30.07 in 10.0 mi WNW 9.2 mph - N/A   Overcast
12:35 PM 69.8 °F 62.6 °F 78% 30.07 in 10.0 mi WNW 16.1 mph 21.9 mph N/A   Overcast
12:55 PM 68.0 °F 62.6 °F 83% 30.06 in 4.0 mi WNW 13.8 mph 19.6 mph N/A   Haze
1:15 PM 66.2 °F 64.4 °F 94% 30.06 in 5.0 mi WNW 15.0 mph 20.7 mph N/A   Overcast
1:35 PM 64.4 °F 64.4 °F 100% 30.06 in 3.0 mi WNW 16.1 mph 23.0 mph N/A   Overcast
1:55 PM 64.4 °F - N/A% 30.06 in 3.0 mi WNW 18.4 mph 24.2 mph N/A   Overcast
2:15 PM 62.6 °F - N/A% 30.06 in 3.0 mi West 15.0 mph 20.7 mph N/A   Overcast
2:35 PM 60.8 °F - N/A% 30.07 in 2.0 mi WNW 15.0 mph 24.2 mph N/A Rain Light Rain
2:55 PM 60.8 °F - N/A% 30.08 in 2.0 mi WNW 13.8 mph 20.7 mph N/A   Overcast
3:15 PM 59.0 °F - N/A% 30.08 in 7.0 mi WNW 11.5 mph 17.3 mph N/A   Overcast
3:35 PM 60.8 °F - N/A% 30.08 in 10.0 mi WNW 15.0 mph 20.7 mph N/A   Overcast
3:55 PM 60.8 °F - N/A% 30.08 in 10.0 mi WNW 13.8 mph 17.3 mph N/A   Overcast
4:15 PM 60.8 °F 55.4 °F 82% 30.09 in 10.0 mi WNW 11.5 mph 18.4 mph N/A   Overcast
4:35 PM 60.8 °F 51.8 °F 72% 30.09 in 10.0 mi WNW 11.5 mph 17.3 mph N/A   Overcast
5:55 PM 60.8 °F 48.2 °F 63% 30.11 in 10.0 mi WNW 12.7 mph - N/A   Overcast
6:35 PM 59.0 °F 46.4 °F 63% 30.12 in 10.0 mi West 10.4 mph 17.3 mph N/A   Scattered Clouds
8:55 PM 59.0 °F 48.2 °F 67% 30.16 in 10.0 mi WNW 9.2 mph - N/A   Overcast
9:55 PM 59.0 °F 46.4 °F 63% 30.16 in 10.0 mi WNW 13.8 mph 25.3 mph N/A   Overcast
10:15 PM 57.2 °F 44.6 °F 63% 30.17 in 10.0 mi WNW 13.8 mph 28.8 mph N/A   Overcast
10:35 PM 57.2 °F 44.6 °F 63% 30.17 in 10.0 mi WNW 13.8 mph 19.6 mph N/A   Overcast
10:55 PM 57.2 °F 44.6 °F 63% 30.17 in 10.0 mi WNW 16.1 mph 19.6 mph N/A   Overcast